DMSP 5D-2 F13 DEB, 42299

Orbit data source: Space-Track

DMSP 5D-2 F13 DEB, 42299 is space debris in SSO originally from a launch on Fri, 24 Mar 1995 UTC launched from the Air Force Western Test Range (AFWTR). Debris objects in space refer to the collection of defunct objects orbiting the Earth. Examples of debris include non-operational satellites, rocket bodies, and fragments generated from explosions, collisions, or faulty payload assembly.

Loading next visibility...
Identifier
42299, 1995-015HR
Orbit
SSO
Country
Flag of USUS
Related business
Manufacturer
Unknown
Mission
Spacecraft
Bus & Motor
Unknown
Mass
Unknown
Launch date (UTC)
1995-03-24 (31 years ago)
Launch vehicle
Unknown
Launch site
Air Force Western Test Range (AFWTR)
Object type
Payload
Rocket body
Debris
Shape & HBR
Unknown shape, 0.1 m
Radar Cross Section
Medium (>0.1 m² and <1 m²)

Expand to show TLE details & history
Last TLE update: 2 days ago

TLE from 2 days ago
0 DMSP 5D-2 F13 DEB
1 42299U 95015HR  26171.18054113  .00049471  00000-0  44498-2 0  9992
2 42299  98.6926 257.0614 0009744 241.8089 118.2146 14.95410110561572
Epoch: 2026-06-20T04:19Z
TLE epoch observation values (Epoch: 2026-06-20T04:19:58.753Z)
Latitude
0.00005°
Longitude
-76.33227°
Altitude
587.329 km
Speed
7.565 km/s
True Right ascension
17h 08m 14s
True Declination
0° 00' 00"
Sunlit
Object was in full shadow at epoch
Visualization orbit readout
Latitude
Unknown
Longitude
Unknown
Altitude
Unknown
Speed
Unknown
Apparent Right ascension
Unknown
Apparent Declination
Unknown
Sunlit
N/A
Visualization observer readout
Local Sidereal Time
16:33:49
Azimuth
Unknown
Elevation
Unknown
Doppler factor
Unknown
Orbital elements
Apogee altitude
584.936 km
Perigee altitude
571.38 km
Semi-major axis
6,956.295 km
Eccentricity
0.00097
Inclination
98.6926°
RAAN
257.0614°
Arg. of periapsis
241.8089°
True anomaly
118.31293°
Mean anomaly
118.2146°
Eccentric anomaly
118.26377°
Mean motion
3.7409 °/min
Orbital period
96.23 mins
BSTAR
0.0044498
Loading maneuver chart data...
Computing Atmospheric mass density...

Documentation

Showing up to 5 results
|